HST 1 20580U 90037B 26105.41035801 .00003488 00000+0 10894-3 0 9997 2 20580 28.4729 149.3915 0002208 162.5991 197.4680 15.30051403778948 POLAR 1 23802U 96013A 26104.87863870 .00000101 00000+0 00000+0 0 9994 2 23802 79.7908 227.7821 6406942 211.2443 86.1091 1.29845766144039 SWAS 1 25560U 98071A 26105.85407826 .00002349 00000+0 15401-3 0 9998 2 25560 69.8978 28.2098 0006741 321.5574 38.5109 15.09187201487864 CXO 1 25867U 99040B 26108.55067978 .00000845 00000+0 00000+0 0 9999 2 25867 55.2415 118.3605 7940380 310.5752 359.9112 0.37810389 17096 XMM-NEWTON 1 25989U 99066A 26105.52041533 .00000139 00000+0 00000+0 0 9991 2 25989 64.8079 283.7888 4696661 66.0314 0.0348 0.50125345 22690 TERRA 1 25994U 99068A 26105.84490418 .00000199 00000+0 49565-4 0 9994 2 25994 97.9519 157.8458 0003573 76.5718 39.6916 14.61053175400507 CLUSTER II-FM7 (SAMBA) 1 26410U 00041A 26107.89154034 .00002775 00000+0 00000+0 0 9997 2 26410 149.5763 40.7788 8981267 257.2151 0.6557 0.44836055 20031 CLUSTER II-FM8 (TANGO) 1 26464U 00045B 26105.37029088 .00002607 00000+0 00000+0 0 9995 2 26464 149.8154 41.2510 8981499 257.5394 0.5870 0.44407628 20010 ODIN 1 26702U 01007A 26105.85465347 .00030227 00000+0 34307-3 0 9994 2 26702 97.3989 143.5131 0003420 63.2232 296.9376 15.62306779379635 TIMED 1 26998U 01055B 26105.85025684 .00000686 00000+0 66062-4 0 9990 2 26998 74.0696 0.5219 0002213 226.2975 133.8027 14.95148965321503 CORIOLIS 1 27640U 03001A 26105.55346230 .00000074 00000+0 55334-4 0 9999 2 27640 98.7151 113.3903 0014689 37.4058 322.8138 14.19926892205338 SORCE 1 27651U 03004A 26105.70317892 .00001631 00000+0 12860-3 0 9999 2 27651 39.9905 258.0770 0018090 320.3627 39.5844 15.03371131262499 MOST 1 27843U 03031D 26105.76913209 .00000038 00000+0 37323-4 0 9994 2 27843 98.7071 114.3615 0010962 74.7162 285.5226 14.21309291181848 SCISAT 1 1 27858U 03036A 26105.69172609 .00000326 00000+0 46335-4 0 9991 2 27858 73.9287 295.5078 0006987 4.4053 355.7184 14.81375025222195 SWIFT 1 28485U 04047A 26105.86433183 .00030897 00000+0 31843-3 0 9990 2 28485 20.5535 303.5435 0002204 141.7084 218.3518 15.62800224177086 HINODE (SOLAR-B) 1 29479U 06041A 26105.63836572 .00000327 00000+0 64756-4 0 9999 2 29479 98.0591 122.7066 0018739 124.1923 236.1061 14.68532943 45697 SHIJIAN-6 02A (SJ-6 02A) 1 29505U 06046A 26105.80650178 .00000689 00000+0 39182-4 0 9995 2 29505 97.6430 146.4189 0003348 26.4556 333.6847 15.16234507 62816 SHIJIAN-6 02B (SJ-6 02B) 1 29506U 06046B 26105.82739800 .00001263 00000+0 10310-3 0 9998 2 29506 97.7127 135.2835 0011408 278.8584 81.1348 15.01178398 61386 FGRST (GLAST) 1 33053U 08029A 26105.16571698 .00002214 00000+0 76281-4 0 9996 2 33053 25.5824 281.9555 0007852 305.7516 54.2291 15.23605711986216 SDO 1 36395U 10005A 26105.43317677 -.00000035 00000+0 00000+0 0 9991 2 36395 34.5208 87.2889 0000634 41.1720 129.3201 1.00273216 59431 CRYOSAT 2 1 36508U 10013A 26105.84666767 .00000064 00000+0 15174-4 0 9992 2 36508 92.0272 262.1766 0002567 95.6457 264.5043 14.51902678849033 X-SAT 1 37389U 11015C 26105.88268773 -.00000055 00000+0 -57346-5 0 9992 2 37389 98.3470 85.8896 0014233 160.9798 199.1917 14.25187094778808 GCOM-W1 (SHIZUKU) 1 38337U 12025A 26105.81049925 .00000255 00000+0 66619-4 0 9999 2 38337 98.1960 47.3241 0001591 115.1222 266.4574 14.57125185739956 NUSTAR 1 38358U 12031A 26105.91668980 .00002054 00000+0 75477-4 0 9999 2 38358 6.0259 141.0211 0009399 263.7846 215.2759 15.08202607 2900 NEOSSAT 1 39089U 13009D 26105.76997769 .00000112 00000+0 53553-4 0 9994 2 39089 98.4164 287.2896 0012160 74.6040 285.6489 14.35804259687785 BRITE-AUSTRIA 1 39091U 13009F 26105.45131143 .00000096 00000+0 47267-4 0 9995 2 39091 98.3980 286.4433 0011317 70.2023 290.0383 14.36516513688044 IRIS 1 39197U 13033A 26105.80423301 .00000627 00000+0 78219-4 0 9999 2 39197 97.9376 305.2668 0024925 160.0981 200.1212 14.85754131691114 HISAKI (SPRINT-A) 1 39253U 13049A 26105.52689752 .00000130 00000+0 84761-4 0 9990 2 39253 29.7189 178.5773 0136563 228.9082 129.9625 13.55536314622913 CASSIOPE 1 39265U 13055A 26105.80897080 .00017726 -43981-6 20817-3 0 9999 2 39265 80.9147 142.2193 0304464 271.8097 84.8291 15.21325737658178 STSAT-3 1 39422U 13066G 26105.91327391 .00001375 00000+0 10830-3 0 9995 2 39422 97.6174 76.8553 0008070 234.5423 125.5049 15.02399137674854 SWARM B 1 39451U 13067A 26105.80147505 .00002048 00000+0 73303-4 0 9996 2 39451 87.7492 1.2531 0002423 79.7738 280.3784 15.28184598673712 SWARM A 1 39452U 13067B 26105.86477199 .00007046 00000+0 12657-3 0 9995 2 39452 87.3294 79.3667 0003693 92.8570 267.3113 15.49650941696590 SWARM C 1 39453U 13067C 26105.86471420 .00007185 00000+0 12909-3 0 9991 2 39453 87.3294 77.9478 0003714 92.9882 267.1804 15.49650017696551 BRITE-CA1 (TORONTO) 1 40020U 14033L 26105.79889295 .00000610 00000+0 99043-4 0 9993 2 40020 97.9637 235.9157 0080016 116.3305 244.6148 14.72578689633036 OCO 2 1 40059U 14035A 26105.80316564 .00000210 00000+0 56615-4 0 9997 2 40059 98.1978 48.0621 0001644 85.0685 275.0701 14.57137352626969 BRITE-PL2 (HEWELIUSZ) 1 40119U 14049B 26105.77069191 .00000998 00000+0 98229-4 0 9996 2 40119 97.9020 217.3268 0013056 320.8215 39.2058 14.94360680632121 MMS 1 1 40482U 15011A 26105.91668980 -.00000561 00000+0 00000+0 0 9998 2 40482 71.4680 349.6070 8377387 166.2120 66.0362 0.28351330 1320 MMS 2 1 40483U 15011B 26105.91668980 -.00000561 00000+0 00000+0 0 9999 2 40483 71.4698 349.6082 8378393 166.2206 66.0072 0.28348506 1325 MMS 3 1 40484U 15011C 26105.91668980 -.00000561 00000+0 00000+0 0 9990 2 40484 71.4709 349.6138 8377381 166.2122 66.0253 0.28351313 1325 MMS 4 1 40485U 15011D 26105.91668980 -.00000561 00000+0 00000+0 0 9991 2 40485 71.4681 349.6092 8376931 166.2198 66.0124 0.28351287 1324 ASTROSAT 1 40930U 15052A 26105.79382631 .00001283 00000+0 74747-4 0 9998 2 40930 5.9966 244.4329 0008355 226.9615 132.9813 14.82395692570551 DAMPE 1 41173U 15078A 26105.86930087 .00000678 00000+0 25494-4 0 9990 2 41173 97.4578 111.0338 0010577 303.1762 56.8464 15.30627249575017 PISAT 1 41784U 16059B 26105.74787524 .00000595 00000+0 10921-3 0 9997 2 41784 97.8192 108.8884 0030166 47.2072 313.1663 14.68867471510570 HXMT (HUIYAN) 1 42758U 17034A 26105.50097419 .00002382 00000+0 12576-3 0 9998 2 42758 43.0132 171.9405 0030401 108.2602 252.1559 15.17929011488134 FLYING LAPTOP 1 42831U 17042G 26105.85201566 .00002036 00000+0 16448-3 0 9995 2 42831 97.4399 263.9076 0019017 338.3809 21.6611 15.00760791477108 ZHANGHENG 1-01 (CSES-1) 1 43194U 18015C 26105.89491382 .00004607 00000+0 20933-3 0 9990 2 43194 97.6809 270.3353 0019078 111.3172 249.0102 15.21125700455170 SALSAT 1 46495U 20068K 26105.26708578 .00004087 00000+0 14851-3 0 9991 2 46495 97.8862 104.5486 0010710 153.9105 206.2675 15.28870140305744 IXPE 1 49954U 21121A 26105.83335647 .00006974 00000+0 36529-3 0 9994 2 49954 0.2298 68.7916 0007055 218.4674 49.8156 15.09666310 5814